www.pogodaiklimat.ru

Погода и климат >> Архив погоды >> Колумбия >> Santa Marta


ПОГОДА в Santa Marta

  • Прогноз погоды в Santa Marta
  • Монитор погоды в Santa Marta
  • Климат города

АРХИВ ПОГОДЫ в Santa Marta

Время (UTC), дата Ветер
(напр.,м/с)
 
Видим.   Явления Облачность Т
(С)
Тd
(С)
f
(%)
Тe
(С)
Тes
(С)
Комфортность P
(гПа)
Po
(гПа)
Тmin
(С)
Tmax
(С)
R
(мм)
R24
(мм)
S
(см)
12 11.10 ЮВ 2 10 км мгла 10/3 600 м
[Cu med, cong Ac As Ci fib]
+25.4 +23.5 89 +34 +35 очень
душно
1013.2 1012.7 +24.8 2
15 11.10 ЮЗ 5 10 км мгла 5/3 600 м
[Cu Sc Ac trans Ci fib]
+29.9 +25.2 76 +43 +48 опасность
перегрева
1013.9 1013.4
18 11.10 мгла н/о +25.6 1011.5 1011.0
00 12.10 ЮВ 2 10 км в посл. час морось {гроза} 9/3 540 м
[Cu Sc As op Cs]
+24.7 +24.7 100 +35 +35 очень
душно
1011.7 1011.2 +32.4 13
03 12.10 СВ 3 10 км мгла 9/3 540 м
[Cu Sc As op Cs]
+25.1 +25.0 99 +36 +36 очень
душно
1014.0 1013.5
12 12.10 ЮВ 6 10 км мгла 10/3 600 м
[Cu Sc As op Cs]
+25.1 +23.7 92 +34 +34 очень
душно
1014.0 1013.5 +23.4 14
15 12.10 Ю 6 10 км мгла 8/3 600 м
[Cu Sc As op Cs]
+28.4 +24.0 77 +39 +42 очень
душно
1014.4 1013.9
18 12.10 Ю 5 10 км мгла 8/3 600 м
[Cu med, cong Ac trans Ci fib]
+30.9 +22.9 62 +41 +45 опасность
перегрева
1012.3 1011.8
21 12.10 ЮЗ 7 10 км мгла 8/3 600 м
[Cu med, cong Ac trans Ci fib]
+29.8 +24.0 71 +41 +42 опасность
перегрева
1010.5 1010.0
00 13.10 ЮВ 2 10 км зарница 5/3 600 м
[Cb cap Ac trans Ci fib]
+28.2 +23.2 74 +38 +38 очень
душно
1011.4 1010.9 +31.4
03 13.10 штиль 0 10 км мгла 8/3 600 м
[Cu Sc Ac trans Ci fib]
+26.6 +22.0 76 +34 +34 очень
душно
1013.9 1013.4
12 13.10 Ю 5 10 км мгла 8/3 600 м
[Cu med, cong Ac trans Ci fib]
+28.2 +20.6 63 +35 +35 очень
душно
1013.7 1013.2 +25.7 0.1
15 13.10 Ю 6 10 км мгла 8/1 600 м
[Cu hum Ac trans Ci fib]
+30.0 +21.0 59 +38 +41 очень
душно
1015.2 1014.7
18 13.10 ЮЗ 7 10 км мгла 9/3 1500 м
[Cu med, cong Ac trans Cs]
+32.0 +22.3 57 +41 +43 опасность
перегрева
1013.1 1012.6
21 13.10 ЮЗ 4 10 км мгла 9/3 1500 м
[Cu Sc As op Cs]
+31.0 +23.3 64 +42 +43 опасность
перегрева
1011.4 1010.9
00 14.10 СВ 4 10 км мгла 6/3 1500 м
[Cu Sc Cs]
+28.0 +23.3 76 +38 +38 очень
душно
1012.4 1011.9 +32.4
12 14.10 СВ 4 10 км мгла 6/3 600 м
[Cu Sc Ac trans Ci sp]
+25.4 +20.8 76 +32 +32 очень
душно
1013.2 1012.7 +23.6
15 14.10 СЗ 2 10 км мгла 8/3 1500 м
[Cu Sc Ac trans Ci sp]
+30.9 +21.4 57 +39 +45 очень
душно
1014.6 1014.1
18 14.10 З 2 10 км мгла 9/3 600 м
[Cu Sc Ac trans Ci fib]
+31.5 +21.9 57 +40 +47 очень
душно
1013.5 1013.0
21 14.10 С 5 10 км мгла 5/3 600 м
[Cu med, cong Ac trans Ci fib]
+31.6 +21.6 55 +40 +41 очень
душно
1010.4 1009.9
00 15.10 СВ 7 10 км мгла 8/1 600 м
[Cu Sc Ac trans Ci fib]
+29.0 +21.7 65 +37 +37 очень
душно
1011.4 1010.9 +32.4
03 15.10 штиль 0 10 км мгла 6/1 600 м
[Cu Sc Ac trans Ci fib]
+26.5 +22.3 78 +35 +35 очень
душно
1012.8 1012.3
12 15.10 штиль 0 10 км мгла 6/1 600 м
[Cu hum Ac trans Ci fib]
+25.0 +21.9 83 +32 +33 очень
душно
1012.0 1011.5 +24.2
15 15.10 З 2 10 км мгла 4/1 600 м
[Cu hum Ac trans Ci fib]
+30.2 +23.6 68 +41 +52 опасность
перегрева
1013.0 1012.5
18 15.10 СЗ 3 10 км мгла 6/3 600 м
[Cb cap As op Ci]
+31.6 +25.5 70 +46 +54 опасность
перегрева
1011.1 1010.6
21 15.10 СЗ 4 10 км мгла 6/3 600 м
[Cu Sc Ci sp]
+33.7 +24.0 57 +46 +47 опасность
перегрева
1008.7 1008.2
00 16.10 С 7 10 км зарница 6/3 600 м
[Cb cap Ci sp]
+29.3 +24.3 75 +41 +41 опасность
перегрева
1009.9 1009.4 +33.8
03 16.10 С 3 10 км слабая морось 8/3 600 м
[Cu Sc Cs]
+26.8 +23.5 82 +36 +36 очень
душно
1011.0 1010.5
12 16.10 ЮВ 3 10 км мгла 8/3 600 м
[Cu Sc Cs]
+25.7 +23.9 90 +35 +36 очень
душно
1011.2 1010.7 +25.0 0.4
15 16.10 З 3 10 км мгла 5/3 600 м
[Cu Sc Cs]
+29.7 +25.8 80 +44 +52 опасность
перегрева
1012.0 1011.5
18 16.10 ЮЗ 3 10 км мгла 3/3 600 м
[Cu med, cong Ci fib]
+32.9 +26.2 68 +49 +59 опасность
перегрева
1010.0 1009.5
21 16.10 СВ 3 10 км осадки на расстоянии 6/3 600 м
[Cb calv Ac trans Ci fib]
+33.1 +24.4 60 +45 +47 опасность
перегрева
1008.0 1007.5
00 17.10 СВ 2 10 км мгла 6/3 600 м
[Cu Sc Ac As Ci fib]
+29.8 +22.9 67 +40 +40 очень
душно
1009.0 1008.5 +33.4
12 17.10 штиль 0 10 км мгла 6/3 600 м
[Cu Sc Ac trans Ci fib]
+26.0 +23.8 88 +36 +36 очень
душно
1011.3 1010.8 +25.0
15 17.10 З 3 10 км мгла 6/3 600 м
[Cu med, cong Ci]
+30.1 +24.6 72 +42 +50 опасность
перегрева
1012.1 1011.6
18 17.10 СЗ 4 10 км мгла 6/3 600 м
[Cu med, cong Ci]
+33.0 +25.6 65 +48 +55 опасность
перегрева
1010.0 1009.5
21 17.10 С 6 10 км мгла 6/3 600 м
[Cu med, cong Ci]
+32.6 +25.4 66 +47 +48 опасность
перегрева
1008.0 1007.5
00 18.10 С 5 10 км зарница 6/3 600 м
[Cb cap Ci]
+30.0 +24.6 73 +43 +43 опасность
перегрева
1009.7 1009.2 +34.0

 

Местоположение метеостанции Santa Marta (Колумбия): широта 11.13 долгота -74.23 высота над уровнем моря 14 м.

В архиве по умолчанию представлена погода в Santa Marta за последнюю неделю. Архивные данные за месяц целиком и за предыдущие месяцы, начиная с января 2011 года, Вы можете получить, выбрав интересующий диапазон дат из раскрывающегося списка и нажав кнопку "Ввод!".


*Определитесь, кто Вы:
робот инопланетянин человек

Внимание! Время в таблицах - всемирное. Для получения местного времени необходимо прибавить поправку, которая в Santa Marta равна -5 ч.

Смотрите также архив погоды в соседних городах и на ближайших метеорологических станциях:

Погода в Barranquilla (Колумбия) (66 км)
Погода в Valledupar (Колумбия) (132 км)
Погода в Riohacha (Колумбия) (149 км)
Погода в Cartagena (Колумбия) (159 км)
Погода в Maracaibo - La Chinit (Венесуэла) (280 км)
Погода в Maracaibo - La Canada (Венесуэла) (290 км)
Погода в Monteria (Колумбия) (312 км)
Погода в Mene Grande (Венесуэла) (389 км)
Погода в El Vigia (Венесуэла) (397 км)
Погода в Cucuta (Колумбия) (403 км)

Пояснения к столбцам:

Ветер - указаны скорость ветра в м/с - средняя за 10 мин, порывы в срок и между сроками (в фигурных скобках) и направление, откуда дует ветер: С - северный, СВ - северо-восточный, В - восточный, ЮВ - юго-восточный, Ю - южный, ЮЗ - юго-западный, З - западный, СЗ - северо-западный.
Видимость - горизонтальная дальность видимости в метрах или километрах. При видимости от 1 до 10 км при отсутствии осадков обычно наблюдается дымка, при ухудшении видимости до 1 км и менее - туман. В сухую погоду видимость может ухудшаться дымом, пылью или мглою.
Явления - указаны атмосферные явления, наблюдавшиеся в срок или в последний час перед сроком; фигурными скобками обозначены явления, наблюдавшиеся между сроками (за 1-3 часа до срока); квадратными скобками обозначены град или гололедные отложения с указанием их диаметра в мм.
Облачность - указаны через наклонную черту общая и нижняя облачность в баллах и высота нижней границы облаков в метрах; квадратными скобками обозначены формы облаков: Ci - перистые, Cs - перисто-слоистые, Cc - перисто-кучевые, Ac - высококучевые, As - высокослоистые, Sc - слоисто-кучевые, Ns - слоисто-дождевые, Cu - кучевые, Cb - кучево-дождевые. Подробнее классификацию облаков см. в Атласе облаков (PDF).
T - Температура воздуха - температура, измеренная на высоте 2 м над землей.
Td - Температура точки росы - температура, при понижении до которой содержащийся в воздухе водяной пар достигнет насыщения.
f - Относительная влажность воздуха - влажноcть воздуха, измеренная на высоте 2 м над землей.
Te - Эффективная температура - температура, которую ощущает одетый по сезону человек в тени. Характеристика душности погоды. При расчете учитывается влияние влажности воздуха и скорости ветра на теплоощущения человека.
Tes - Эффективная температура на солнце - температура, которую ощущает человек, с поправкой на солнечный нагрев. Характеристика знойности погоды. Зависит от высоты солнца над горизонтом, облачности и скорости ветра. Ночью, в пасмурную погоду, а также при ветре 12 м/с и более поправка равна нулю.
P - Атмосферное давление - приведенное к уровню моря атмосферное давление.
Po - Атмосферное давление - измеренное на уровне метеостанции атмосферное давление.
Tmin - Минимальная температура - минимум температуры воздуха на высоте 2 м над землей.
Tmax - Максимальная температура - максимум температуры воздуха на высоте 2 м над землей.
R - Количество осадков - Количество выпавших осадков за период времени, мм. При наведении курсора мыши на число - период времени, за который выпало указанное количество осадков.
R24 - Количество осадков - Количество выпавших осадков за 24 часа, мм.
S - Снежный покров - Высота снежного покрова, см. При наведении курсора мыши на число - состояние снежного покрова и степень покрытия местности в баллах.